DW5542 Weather Reports


time (UTC)temp
C
wind
direction
speed
KPH
gust
KPH
rain 1hr
cm
rain 24hr
cm
rain mn
cm
humidity
%
barometer
mb
20260508050059 -17 0.0 0.0 0.00 0.97 0.00 1010.3
20260508044557 -17 0.0 0.0 0.00 0.97 0.00 1010.2
20260508043049 -17 0.0 0.0 0.00 0.97 0.00 1009.9
20260508041610 -17 0.0 0.0 0.00 0.97 0.00 1010.0
20260508040055 -17 0.0 0.0 0.00 0.97 0.00 1010.0
20260508034537 -17 0.0 0.0 0.00 0.97 0.00 1009.8
20260508033032 -17 0.0 0.0 0.00 0.97 0.00 1009.9
20260508031534 11 356 0.0 0.0 0.00 0.97 0.00 92 1010.2
20260508030032 11 356 0.0 0.0 0.00 0.97 0.00 93 1010.2
20260508024527 11 356 0.0 0.0 0.00 0.97 0.00 93 1010.4
20260508023022 11 352 0.0 0.0 0.00 0.97 0.00 92 1010.4
20260508021521 11 330 0.0 1.6 0.00 0.97 0.00 92 1010.5
20260508020028 11 347 0.0 0.0 0.00 0.97 0.00 92 1010.6
20260508014518 12 334 0.0 0.0 0.00 0.97 0.00 92 1010.6
20260508013017 11 329 0.0 0.0 0.00 0.97 0.00 92 1010.7
20260508011515 12 333 0.0 0.0 0.00 0.97 0.00 92 1010.9
20260508010012 12 322 0.0 3.2 0.00 0.97 0.00 92 1011.0
20260508004511 12 352 0.0 1.6 0.00 0.97 0.00 92 1011.1
20260508003008 12 332 0.0 0.0 0.00 0.97 0.00 92 1011.1
20260508001506 12 333 0.0 0.0 0.00 0.97 0.00 92 1011.2
20260508000006 12 333 0.0 0.0 0.00 0.97 0.00 92 1011.2
20260507234603 12 333 0.0 0.0 0.00 0.97 0.00 92 1011.4
20260507233106 12 332 0.0 0.0 0.00 0.97 0.00 91 1011.4
20260507231559 12 332 0.0 0.0 0.00 0.97 0.00 91 1011.5
20260507230056 12 327 0.0 0.0 0.00 0.97 0.00 90 1011.5
20260507224600 12 345 0.0 0.0 0.00 0.97 0.00 89 1011.6
20260507223058 12 19 0.0 0.0 0.00 0.97 0.00 89 1011.8
20260507221552 13 334 0.0 0.0 0.00 0.97 0.00 89 1011.9
20260507220050 13 331 0.0 0.0 0.00 0.97 0.00 90 1011.8
20260507214554 13 319 0.0 0.0 0.00 0.97 0.97 89 1011.7
20260507213100 13 331 0.0 0.0 0.00 0.97 0.97 90 1011.5
20260507211547 12 344 0.0 0.0 0.00 0.97 0.97 90 1011.3
20260507210049 13 342 0.0 0.0 0.00 0.97 0.97 90 1011.1
20260507204546 13 325 0.0 0.0 0.00 0.97 0.97 91 1010.9
20260507203046 14 319 0.0 0.0 0.00 0.97 0.97 91 1010.8
20260507201545 14 316 0.0 0.0 0.00 0.97 0.97 91 1010.8
20260507200046 14 315 0.0 0.0 0.03 0.97 0.97 90 1010.9
20260507194613 13 315 0.0 0.0 0.08 0.97 0.97 90 1010.7
20260507193043 14 317 0.0 0.0 0.15 0.97 0.97 90 1010.6
20260507191541 13 347 0.0 0.0 0.25 0.94 0.94 89 1010.5
20260507190049 13 272 0.0 3.2 0.84 0.94 0.94 89 1010.7
20260507184539 14 281 0.0 0.0 0.86 0.89 0.89 88 1010.7
20260507183045 14 264 0.0 0.0 0.79 0.81 0.81 88 1010.6
20260507181537 15 322 0.0 1.6 0.66 0.69 0.69 86 1010.5
20260507180038 15 322 0.0 0.0 0.08 0.10 0.10 83 1010.3
20260507174543 16 326 1.6 20.9 0.00 0.03 0.03 78 1010.1
20260507173052 17 333 0.0 8.0 0.00 0.03 0.03 64 1010.0
20260507171542 18 96 0.0 0.0 0.00 0.03 0.03 67 1009.9
20260507170034 18 153 0.0 1.6 0.00 0.03 0.03 76 1009.7
20260507164541 18 122 0.0 1.6 0.00 0.03 0.03 75 1009.7
20260507163032 18 111 0.0 0.0 0.00 0.03 0.03 75 1009.4
20260507161536 18 107 0.0 6.4 0.00 0.03 0.03 74 1009.2
20260507160037 18 101 0.0 0.0 0.00 0.03 0.03 74 1009.1
20260507154531 18 144 0.0 8.0 0.00 0.03 0.03 76 1009.1
20260507153029 18 121 0.0 16.1 0.00 0.03 0.03 75 1009.1
20260507151529 18 123 0.0 11.3 0.00 0.03 0.03 75 1009.0
20260507150028 19 125 0.0 1.6 0.00 0.03 0.03 75 1009.1
20260507144531 19 100 0.0 12.9 0.00 0.03 0.03 77 1009.2
20260507143025 19 143 0.0 12.9 0.00 0.03 0.03 76 1009.5
20260507141524 19 104 0.0 8.0 0.00 0.03 0.03 77 1009.4
20260507140022 19 100 1.6 17.7 0.00 0.03 0.03 74 1009.6
20260507134523 20 91 0.0 9.7 0.00 0.03 0.03 69 1009.7
20260507133020 20 114 0.0 6.4 0.00 0.03 0.03 65 1009.8
20260507131527 20 108 0.0 4.8 0.00 0.03 0.03 70 1009.7
20260507130019 20 80 0.0 3.2 0.00 0.03 0.03 69 1009.9
20260507124519 18 91 0.0 16.1 0.00 0.03 0.03 73 1010.1
20260507123014 18 100 0.0 6.4 0.03 0.03 0.03 80 1010.1
20260507121512 17 127 0.0 0.0 0.03 0.03 0.03 81 1010.4
20260507120027 16 136 0.0 3.2 0.03 0.03 0.03 82 1010.8
20260507114509 16 102 0.0 0.0 0.03 0.03 0.03 82 1010.8
20260507113032 16 84 0.0 1.6 0.00 0.00 0.00 82 1011.1
20260507111509 16 119 0.0 14.5 0.00 0.00 0.00 78 1011.1
20260507110010 18 95 1.6 24.1 0.00 0.00 0.00 76 1011.3
20260507104505 18 108 0.0 12.9 0.00 0.00 0.00 73 1011.2
20260507103008 18 107 0.0 11.3 0.00 0.00 0.00 73 1011.1
20260507101507 18 104 1.6 19.3 0.00 0.00 0.00 71 1011.1
20260507100002 19 108 0.0 14.5 0.00 0.00 0.00 68 1011.1
20260507094502 19 91 0.0 8.0 0.00 0.00 0.00 67 1011.1
20260507093059 19 105 0.0 12.9 0.00 0.00 0.00 68 1011.1
20260507091557 19 139 0.0 12.9 0.00 0.00 0.00 68 1011.1
20260507090055 18 97 0.0 11.3 0.00 0.00 0.00 70 1011.0
20260507084555 18 110 0.0 12.9 0.00 0.00 0.00 73 1011.1
20260507083050 18 110 0.0 4.8 0.00 0.00 0.00 74 1011.1
20260507081550 17 100 0.0 9.7 0.00 0.00 0.00 75 1011.1
20260507080048 17 99 0.0 12.9 0.00 0.00 0.00 75 1011.1
20260507074549 17 97 0.0 3.2 0.00 0.00 0.00 73 1011.1
20260507073059 17 96 0.0 3.2 0.00 0.00 0.00 72 1011.0
20260507071542 17 97 0.0 11.3 0.00 0.00 0.00 73 1010.9
20260507070043 17 99 0.0 3.2 0.00 0.00 0.00 72 1010.7
20260507064544 16 94 0.0 0.0 0.00 0.00 0.00 71 1010.6
20260507063040 14 344 0.0 0.0 0.00 0.00 0.00 72 1010.6
20260507061537 13 344 0.0 0.0 0.00 0.00 0.00 72 1010.6
20260507060032 12 344 0.0 0.0 0.00 0.00 0.00 73 1010.5
20260507054531 12 344 0.0 0.0 0.00 0.00 0.00 73 1010.5
20260507053035 11 344 0.0 0.0 0.00 0.00 0.00 75 1010.5
20260507051529 -17 0.0 0.0 0.00 0.00 0.00 1010.3